DMSP 5D-2 F13 DEB

Satellite information

Favourite Embed

Satellite Type and Status

DEBRISIN ORBIT

Key statistics

Satellite DMSP 5D-2 F13 DEB at a glance.

Uptime

11007

Days in orbit

Revolutions

≈ 14.3

Per day

Orbit

SSO

Sun Synchronous Orbit

Inclination

98.9

Latest

Satellite identification and parameters

Extended collection of information and parameters for DMSP 5D-2 F13 DEB.

Object identification

Identified? True

Debris? True

Object name: DMSP 5D-2 F13 DEB

International designator: 1995-015EX

Object number (NORAD): 40600

Object ID (CCSDS): 40600

Country: UNITED STATES OF AMERICA (US)

Current information (Y/N): Y

RCS size: SMALL

Orbital parameters

Period: 100.636 minutes

Inclination: 98.8554 deg

SMA: 7166.859 km

Apoapsis: 818.288 km

Periapsis: 759.16 km

RAAN: 161.3852 deg

Eccentricy: 0.0041251

Argument of periapsis: 130.8776 deg

Mean anomaly: 229.5992 deg

Mean motion: 14.30900562 rev/day

Mean motion (dot): 0.00007476 rev/day2

B* drag term: 0.0028353 1/REarth

Two-line elements (TLE)

Creation date: May 9, 2025, 5:15 p.m.

Reference frame: TEME

Reference center: EARTH

Epoch: May 9, 2025, 12:51 a.m. UTC

TLE line 0: 0 DMSP 5D-2 F13 DEB

TLE line 1: 1 40600U 95015EX 25129.03568237 .00007476 00000-0 28353-2 0 9990

TLE line 2: 2 40600 98.8554 161.3852 0041251 130.8776 229.5992 14.30900562517968

Live tracking on map

Real-time ground track for satellite DMSP 5D-2 F13 DEB.

In-orbit conjunctions

A list of the most updated potential collisions computed for object DMSP 5D-2 F13 DEB.

Target Orbit TCA Probability of collision Miss distance Type
TIROS 10 SSO 2025-03-03 04:49:35 0.0001000835 649.0 (m) PAYLOAD
DMSP 5D-2 F8 DEB SSO 2024-09-12 22:47:13 0.0001807758 510.0 (m) DEBRIS
METEOR 2-8 DEB LEO 2024-07-27 06:24:35 0.0002122937 76.0 (m) DEBRIS

Associated space launch

Military meteorological satellite

DMSP 5D-2 F13 DEB was lifted into orbit during the mission ‘Atlas E | DMSP-5D2 F13’, on board a Atlas E space rocket.

The launch took place on March 24, 1995, 2:05 p.m. from Space Launch Complex 3W.

For more information about the launch, click the button.

Launch to space Atlas E | DMSP-5D2 F13
Atlas E | DMSP-5D2 F13

Agency: N/A

Status: Launch Successful

Launch date: March 24, 1995, 2:05 p.m. UTC

Rocket: Atlas E

Launch pad: Space Launch Complex 3W

Location: Vandenberg SFB, CA, USA

...

Latest news about this satellite

There are no fresh news available about this satellite. Check back as we update our databases every day.


Newsletter sign-up

Weekly statistics, charts and insights to help you stay on top of the space industry.